WGS F3 (USA 211)

Last updated on Thu Oct 30 2025 00:02:48 GMT+0000 (Coordinated Universal Time)

1 36108U 09068A 25302.34376369 -.00000107 00000+0 00000+0 0 9991 2 36108 0.2691 86.3455 0000889 78.1570 75.4161 1.00264864 44285
UTC large
Height (km)
Speed (km/s)
/
Latitude / Longitude
Inclination (degrees)
Orbital Period (minutes)
Azimuth
Elevation
Range (km)
Doppler Factor

Next 0 passes for location: London (51.5072 / 0.1276)

Sorry there are no passes over London.